| time (UTC) | temp F | wind direction | speed knots | gust knots | rain 1hr in | rain 24hr in | rain mn in | humidity % | barometer mb |
| 20260905210626 | 58 | 222 | 0.0 | 0.9 | 0.00 | 0.00 | 0.00 | 25 | 1023.6 |
| 20260905205625 | 59 | 95 | 0.9 | 3.5 | 0.00 | 0.00 | 0.00 | 25 | 1023.7 |
| 20260905204625 | 58 | 146 | 0.9 | 2.6 | 0.00 | 0.00 | 0.00 | 25 | 1023.6 |
| 20260905203625 | 59 | 194 | 0.9 | 2.6 | 0.00 | 0.00 | 0.00 | 25 | 1023.6 |
| 20260905202625 | 58 | 139 | 0.0 | 2.6 | 0.00 | 0.00 | 0.00 | 25 | 1023.6 |
| 20260905201624 | 58 | 154 | 0.0 | 1.7 | 0.00 | 0.00 | 0.00 | 25 | 1023.5 |
| 20260905200624 | 57 | 135 | 0.0 | 0.0 | 0.00 | 0.00 | 0.00 | 26 | 1023.3 |
| 20260905195624 | 57 | 0 | 0.0 | 0.0 | 0.00 | 0.00 | 0.00 | 26 | 1023.3 |
| 20260905194623 | 57 | 0 | 0.0 | 0.0 | 0.00 | 0.00 | 0.00 | 26 | 1023.3 |
| 20260905193623 | 58 | 0 | 0.0 | 0.0 | 0.00 | 0.00 | 0.00 | 25 | 1023.2 |
| 20260905192623 | 58 | 0 | 0.0 | 0.0 | 0.00 | 0.00 | 0.00 | 25 | 1023.1 |
| 20260905191622 | 57 | 0 | 0.0 | 0.0 | 0.00 | 0.00 | 0.00 | 26 | 1023.0 |
| 20260905190622 | 57 | 0 | 0.0 | 0.0 | 0.00 | 0.00 | 0.00 | 26 | 1022.8 |
| 20260905185622 | 57 | 0 | 0.0 | 0.0 | 0.00 | 0.00 | 0.00 | 26 | 1022.7 |
| 20260905184622 | 57 | 0 | 0.0 | 0.0 | 0.00 | 0.00 | 0.00 | 26 | 1022.7 |
| 20260905183621 | 57 | 0 | 0.0 | 0.0 | 0.00 | 0.00 | 0.00 | 26 | 1022.7 |
| 20260905182621 | 57 | 0 | 0.0 | 0.0 | 0.00 | 0.00 | 0.00 | 25 | 1022.6 |
| 20260905181621 | 58 | 1 | 0.0 | 0.9 | 0.00 | 0.00 | 0.00 | 25 | 1022.5 |
| 20260905180620 | 60 | 135 | 0.0 | 0.9 | 0.00 | 0.00 | 0.00 | 25 | 1022.5 |
| 20260905175620 | 60 | 0 | 0.0 | 0.0 | 0.00 | 0.00 | 0.00 | 25 | 1022.5 |
| 20260905174620 | 60 | 0 | 0.0 | 0.0 | 0.00 | 0.00 | 0.00 | 25 | 1022.4 |
| 20260905173620 | 62 | 197 | 0.0 | 3.5 | 0.00 | 0.00 | 0.00 | 24 | 1022.3 |
| 20260905172619 | 62 | 0 | 0.0 | 0.0 | 0.00 | 0.00 | 0.00 | 24 | 1022.3 |
| 20260905171619 | 66 | 151 | 0.9 | 2.6 | 0.00 | 0.00 | 0.00 | 23 | 1022.4 |
| 20260905170619 | 67 | 175 | 0.9 | 3.5 | 0.00 | 0.00 | 0.00 | 23 | 1022.5 |
| 20260905165618 | 67 | 171 | 1.7 | 7.0 | 0.00 | 0.00 | 0.00 | 23 | 1022.3 |
| 20260905164618 | 67 | 128 | 0.9 | 2.6 | 0.00 | 0.00 | 0.00 | 23 | 1022.0 |
| 20260905163618 | 69 | 210 | 2.6 | 7.0 | 0.00 | 0.00 | 0.00 | 22 | 1022.2 |
| 20260905162618 | 69 | 145 | 0.9 | 3.5 | 0.00 | 0.00 | 0.00 | 22 | 1022.0 |
| 20260905161617 | 70 | 106 | 1.7 | 3.5 | 0.00 | 0.00 | 0.00 | 22 | 1022.2 |
| 20260905160617 | 74 | 83 | 2.6 | 7.8 | 0.00 | 0.00 | 0.00 | 21 | 1022.3 |
| 20260905155617 | 76 | 76 | 0.9 | 1.7 | 0.00 | 0.00 | 0.00 | 20 | 1022.5 |
| 20260905154616 | 75 | 163 | 1.7 | 4.3 | 0.00 | 0.00 | 0.00 | 21 | 1022.5 |
| 20260905153616 | 77 | 152 | 1.7 | 3.5 | 0.00 | 0.00 | 0.00 | 20 | 1022.6 |
| 20260905152616 | 78 | 236 | 0.9 | 3.5 | 0.00 | 0.00 | 0.00 | 20 | 1022.8 |
| 20260905151616 | 77 | 181 | 1.7 | 3.5 | 0.00 | 0.00 | 0.00 | 20 | 1022.8 |
| 20260905150615 | 76 | 229 | 1.7 | 3.5 | 0.00 | 0.00 | 0.00 | 20 | 1022.7 |
| 20260905145615 | 76 | 194 | 1.7 | 4.3 | 0.00 | 0.00 | 0.00 | 20 | 1022.8 |
| 20260905144615 | 76 | 184 | 2.6 | 5.2 | 0.00 | 0.00 | 0.00 | 20 | 1022.7 |
| 20260905143614 | 77 | 145 | 0.9 | 3.5 | 0.00 | 0.00 | 0.00 | 20 | 1022.9 |
| 20260905142614 | 77 | 202 | 2.6 | 5.2 | 0.00 | 0.00 | 0.00 | 20 | 1022.8 |
| 20260905141614 | 74 | 121 | 2.6 | 5.2 | 0.00 | 0.00 | 0.00 | 21 | 1022.6 |
| 20260905140613 | 75 | 87 | 2.6 | 7.0 | 0.00 | 0.00 | 0.00 | 21 | 1022.7 |
| 20260905135613 | 71 | 237 | 1.7 | 5.2 | 0.00 | 0.00 | 0.00 | 22 | 1022.5 |
| 20260905134613 | 75 | 192 | 2.6 | 7.0 | 0.00 | 0.00 | 0.00 | 21 | 1022.8 |
| 20260905133613 | 70 | 228 | 3.5 | 7.0 | 0.00 | 0.00 | 0.00 | 22 | 1022.4 |
| 20260905132615 | 71 | 223 | 3.5 | 7.0 | 0.00 | 0.00 | 0.00 | 22 | 1022.4 |
| 20260905131612 | 71 | 185 | 3.5 | 7.0 | 0.00 | 0.00 | 0.00 | 22 | 1022.3 |
| 20260905130612 | 73 | 66 | 2.6 | 6.1 | 0.00 | 0.00 | 0.00 | 21 | 1022.6 |
| 20260905125611 | 71 | 214 | 3.5 | 5.2 | 0.00 | 0.00 | 0.00 | 22 | 1022.5 |
| 20260905124611 | 75 | 125 | 3.5 | 7.0 | 0.00 | 0.00 | 0.00 | 21 | 1022.7 |
| 20260905123611 | 75 | 103 | 3.5 | 11.3 | 0.00 | 0.00 | 0.00 | 21 | 1022.6 |
| 20260905122610 | 72 | 237 | 2.6 | 5.2 | 0.00 | 0.00 | 0.00 | 21 | 1022.5 |
| 20260905121610 | 76 | 205 | 1.7 | 3.5 | 0.00 | 0.00 | 0.00 | 20 | 1022.8 |
| 20260905120610 | 77 | 159 | 1.7 | 4.3 | 0.00 | 0.00 | 0.00 | 20 | 1022.9 |
| 20260905115610 | 74 | 157 | 3.5 | 7.0 | 0.00 | 0.00 | 0.00 | 21 | 1022.5 |
| 20260905114609 | 73 | 138 | 3.5 | 5.2 | 0.00 | 0.00 | 0.00 | 21 | 1022.7 |
| 20260905113609 | 74 | 173 | 3.5 | 7.0 | 0.00 | 0.00 | 0.00 | 21 | 1022.7 |
| 20260905112609 | 72 | 192 | 4.3 | 8.7 | 0.00 | 0.00 | 0.00 | 22 | 1022.5 |
| 20260905111608 | 73 | 209 | 4.3 | 9.6 | 0.00 | 0.00 | 0.00 | 21 | 1022.7 |
| 20260905110608 | 72 | 121 | 3.5 | 8.7 | 0.00 | 0.00 | 0.00 | 21 | 1022.8 |
| 20260905105608 | 72 | 313 | 1.7 | 4.3 | 0.00 | 0.00 | 0.00 | 21 | 1022.7 |
| 20260905104608 | 73 | 356 | 2.6 | 5.2 | 0.00 | 0.00 | 0.00 | 21 | 1022.7 |
| 20260905103607 | 74 | 317 | 1.7 | 4.3 | 0.00 | 0.00 | 0.00 | 21 | 1022.8 |
| 20260905102607 | 70 | 347 | 1.7 | 3.5 | 0.00 | 0.00 | 0.00 | 22 | 1022.8 |
| 20260905101607 | 71 | 331 | 0.9 | 2.6 | 0.00 | 0.00 | 0.00 | 22 | 1022.8 |
| 20260905100606 | 67 | 292 | 0.9 | 2.6 | 0.00 | 0.00 | 0.00 | 23 | 1022.6 |
| 20260905095606 | 66 | 18 | 0.0 | 2.6 | 0.00 | 0.00 | 0.00 | 23 | 1022.8 |
| 20260905094606 | 65 | 93 | 1.7 | 3.5 | 0.00 | 0.00 | 0.00 | 23 | 1022.7 |
| 20260905093606 | 64 | 97 | 2.6 | 7.8 | 0.00 | 0.00 | 0.00 | 24 | 1022.7 |
| 20260905092605 | 65 | 90 | 0.9 | 3.5 | 0.00 | 0.00 | 0.00 | 23 | 1022.7 |
| 20260905091605 | 65 | 242 | 0.0 | 1.7 | 0.00 | 0.00 | 0.00 | 23 | 1022.6 |
| 20260905090605 | 65 | 114 | 0.0 | 2.6 | 0.00 | 0.00 | 0.00 | 23 | 1022.2 |
| 20260905085604 | 64 | 150 | 0.0 | 2.6 | 0.00 | 0.00 | 0.00 | 24 | 1021.7 |
| 20260905084604 | 64 | 1 | 0.0 | 0.9 | 0.00 | 0.00 | 0.00 | 24 | 1021.6 |
| 20260905083604 | 62 | 0 | 0.0 | 0.0 | 0.00 | 0.00 | 0.00 | 24 | 1021.8 |
| 20260905082603 | 62 | 356 | 0.0 | 1.7 | 0.00 | 0.00 | 0.00 | 24 | 1022.1 |
| 20260905081603 | 62 | 317 | 0.0 | 2.6 | 0.00 | 0.00 | 0.00 | 24 | 1022.0 |
| 20260905080603 | 63 | 6 | 0.0 | 0.9 | 0.00 | 0.00 | 0.00 | 24 | 1022.4 |
| 20260905075603 | 63 | 86 | 0.0 | 2.6 | 0.00 | 0.00 | 0.00 | 24 | 1022.0 |
| 20260905074602 | 63 | 237 | 0.9 | 1.7 | 0.00 | 0.00 | 0.00 | 24 | 1021.5 |
| 20260905073602 | 63 | 181 | 0.0 | 0.0 | 0.00 | 0.00 | 0.00 | 24 | 1021.7 |
| 20260905072602 | 64 | 225 | 0.0 | 0.9 | 0.00 | 0.00 | 0.00 | 24 | 1021.5 |
| 20260905071601 | 65 | 204 | 1.7 | 3.5 | 0.00 | 0.00 | 0.00 | 23 | 1021.3 |
| 20260905070601 | 65 | 219 | 1.7 | 4.3 | 0.00 | 0.00 | 0.00 | 23 | 1021.4 |
| 20260905065601 | 65 | 221 | 3.5 | 7.0 | 0.00 | 0.00 | 0.00 | 23 | 1021.0 |
| 20260905064601 | 66 | 235 | 1.7 | 3.5 | 0.00 | 0.00 | 0.00 | 23 | 1021.4 |
| 20260905063600 | 64 | 311 | 0.9 | 3.5 | 0.00 | 0.00 | 0.00 | 24 | 1021.5 |
| 20260905062600 | 66 | 275 | 1.7 | 3.5 | 0.00 | 0.00 | 0.00 | 23 | 1021.3 |
| 20260905061600 | 64 | 326 | 0.0 | 1.7 | 0.00 | 0.00 | 0.00 | 24 | 1021.0 |
| 20260905060559 | 64 | 194 | 0.0 | 0.9 | 0.00 | 0.00 | 0.00 | 24 | 1020.9 |
| 20260905055559 | 64 | 225 | 0.0 | 0.9 | 0.00 | 0.00 | 0.00 | 24 | 1020.6 |
| 20260905054559 | 64 | 314 | 0.0 | 1.7 | 0.00 | 0.00 | 0.00 | 24 | 1020.6 |
| 20260905053559 | 64 | 308 | 0.9 | 3.5 | 0.00 | 0.00 | 0.00 | 24 | 1020.5 |
| 20260905052558 | 64 | 248 | 0.0 | 4.3 | 0.00 | 0.00 | 0.00 | 24 | 1020.1 |
| 20260905051558 | 63 | 304 | 0.0 | 0.9 | 0.00 | 0.00 | 0.00 | 24 | 1019.9 |
| 20260905050558 | 64 | 265 | 0.0 | 2.6 | 0.00 | 0.00 | 0.00 | 24 | 1020.0 |
| 20260905045557 | 65 | 205 | 1.7 | 4.3 | 0.00 | 0.00 | 0.00 | 23 | 1019.5 |
| 20260905044557 | 65 | 185 | 2.6 | 4.3 | 0.00 | 0.00 | 0.00 | 23 | 1019.2 |
| 20260905043557 | 65 | 238 | 1.7 | 3.5 | 0.00 | 0.00 | 0.00 | 23 | 1018.9 |
| 20260905042556 | 65 | 214 | 2.6 | 4.3 | 0.00 | 0.00 | 0.00 | 23 | 1018.7 |
| 20260905041556 | 65 | 230 | 4.3 | 8.7 | 0.00 | 0.00 | 0.00 | 23 | 1018.4 |
| 20260905040556 | 64 | 270 | 3.5 | 7.0 | 0.00 | 0.00 | 0.00 | 24 | 1018.1 |
| 20260905035556 | 63 | 266 | 1.7 | 4.3 | 0.00 | 0.05 | 0.05 | 24 | 1017.9 |
| 20260905034555 | 64 | 224 | 5.2 | 9.6 | 0.00 | 0.05 | 0.05 | 24 | 1017.9 |
| 20260905033555 | 64 | 227 | 3.5 | 5.2 | 0.00 | 0.05 | 0.05 | 24 | 1018.0 |
| 20260905032555 | 64 | 226 | 5.2 | 7.0 | 0.04 | 0.05 | 0.05 | 24 | 1018.1 |
| 20260905031555 | 64 | 226 | 5.2 | 7.0 | 0.04 | 0.05 | 0.05 | 24 | 1018.1 |
| 20260905030554 | 63 | 211 | 2.6 | 4.3 | 0.05 | 0.05 | 0.05 | 24 | 1018.1 |
| 20260905025554 | 63 | 249 | 2.6 | 5.2 | 0.05 | 0.05 | 0.05 | 24 | 1018.1 |
| 20260905024554 | 63 | 285 | 2.6 | 5.2 | 0.05 | 0.05 | 0.05 | 24 | 1017.9 |
| 20260905023553 | 64 | 290 | 0.9 | 3.5 | 0.05 | 0.05 | 0.05 | 24 | 1017.7 |
| 20260905022553 | 64 | 270 | 2.6 | 4.3 | 0.01 | 0.01 | 0.01 | 24 | 1017.7 |
| 20260905021553 | 68 | 242 | 1.7 | 3.5 | 0.01 | 0.01 | 0.01 | 23 | 1017.7 |
| 20260905020552 | 68 | 283 | 0.9 | 2.6 | 0.00 | 0.00 | 0.00 | 23 | 1017.4 |
| 20260905015552 | 67 | 61 | 0.9 | 2.6 | 0.00 | 0.00 | 0.00 | 23 | 1017.0 |
| 20260905014552 | 68 | 181 | 0.9 | 1.7 | 0.00 | 0.00 | 0.00 | 23 | 1017.0 |
| 20260905013551 | 68 | 117 | 0.9 | 2.6 | 0.00 | 0.00 | 0.00 | 23 | 1016.8 |
| 20260905012551 | 67 | 163 | 0.9 | 2.6 | 0.00 | 0.00 | 0.00 | 23 | 1016.9 |
| 20260905011551 | -1 | 127 | 0.9 | 3.5 | 0.00 | 0.00 | 0.00 | 12 | 1010.1 |
| 20260905010551 | 67 | 122 | 0.0 | 3.5 | 0.00 | 0.00 | 0.00 | 23 | 1016.8 |
| 20260905005550 | 67 | 122 | 0.0 | 2.6 | 0.00 | 0.00 | 0.00 | 23 | 1016.8 |
| 20260905004550 | 67 | 63 | 1.7 | 2.6 | 0.00 | 0.00 | 0.00 | 23 | 1016.8 |
| 20260905003550 | 67 | 127 | 0.9 | 2.6 | 0.00 | 0.00 | 0.00 | 23 | 1016.8 |
| 20260905002549 | 66 | 63 | 0.0 | 2.6 | 0.00 | 0.00 | 0.00 | 23 | 1016.7 |
| 20260905001549 | 65 | 64 | 0.0 | 0.9 | 0.00 | 0.00 | 0.00 | 23 | 1016.7 |
| 20260905000549 | 65 | 88 | 0.0 | 0.9 | 0.00 | 0.00 | 0.00 | 23 | 1016.7 |
| 20260904235549 | 65 | 92 | 0.0 | 1.7 | 0.00 | 0.00 | 0.00 | 23 | 1016.6 |
| 20260904234548 | 65 | 59 | 0.0 | 1.7 | 0.00 | 0.00 | 0.00 | 23 | 1016.7 |
| 20260904233548 | 65 | 129 | 0.0 | 2.6 | 0.00 | 0.00 | 0.00 | 23 | 1016.7 |
| 20260904232548 | 64 | 122 | 0.9 | 1.7 | 0.00 | 0.00 | 0.00 | 24 | 1016.8 |
| 20260904231547 | 64 | 131 | 0.0 | 0.9 | 0.00 | 0.00 | 0.00 | 24 | 1016.8 |
| 20260904230547 | 64 | 90 | 0.0 | 0.9 | 0.00 | 0.00 | 0.00 | 24 | 1016.9 |
| 20260904225547 | 65 | 67 | 0.0 | 0.0 | 0.00 | 0.00 | 0.00 | 23 | 1016.9 |
| 20260904224546 | 66 | 108 | 0.0 | 1.7 | 0.00 | 0.00 | 0.00 | 23 | 1016.8 |
| 20260904223546 | 64 | 181 | 0.0 | 0.0 | 0.00 | 0.00 | 0.00 | 24 | 1016.8 |
| 20260904222546 | 65 | 28 | 0.0 | 1.7 | 0.00 | 0.00 | 0.00 | 23 | 1016.9 |
| 20260904221546 | 65 | 90 | 0.0 | 1.7 | 0.00 | 0.00 | 0.00 | 23 | 1016.8 |
| 20260904220545 | 64 | 90 | 0.0 | 0.9 | 0.00 | 0.00 | 0.00 | 24 | 1010.4 |
| 20260904215545 | 63 | 0 | 0.0 | 0.0 | 0.00 | 0.00 | 0.00 | 24 | 1016.9 |
| 20260904214545 | 62 | 0 | 0.0 | 0.0 | 0.00 | 0.00 | 0.00 | 24 | 1016.9 |
| 20260904213544 | 62 | 135 | 0.0 | 0.0 | 0.00 | 0.00 | 0.00 | 24 | 1017.1 |
| 20260904212544 | 62 | 0 | 0.0 | 0.0 | 0.00 | 0.00 | 0.00 | 24 | 1017.2 |
| 20260904211544 | 65 | 0 | 0.0 | 0.0 | 0.00 | 0.00 | 0.00 | 23 | 1017.5 |